Wind_Speed
8 5 12 12 14 17 17 14 8 5 1 4 9 6 10 10 5 8 9 15 16 16 19 25 24 22 25 30 25 27 29 35 33 34 33 31 26 30 34 33 32 29 26 28
9 18 13 16 18 18 20 6 7 7 7 6 5 6 7 10 11 10 16 16 18 17 17 23 25 27 25 25 28 30 31 35 34 33 32 25 31 32 33 28 30 32 31 28
16 9 18 19 20 18 6 5 7 7 6 4 3 5 4 5 7 14 15 16 21 22 21 19 25 30 28 27 30 31 34 36 37 35 30 26 24 27 30 27 28 31 30 30
12 19 20 20 19 8 5 9 9 6 5 2 3 4 4 6 8 11 14 16 19 20 19 21 23 28 31 33 35 37 35 35 38 37 32 29 25 24 28 36 34 33 33 31
15 10 19 20 13 7 8 7 1 3 6 5 2 2 7 8 11 10 18 17 18 20 22 23 24 33 37 37 37 37 38 37 35 37 35 33 31 33 31 34 36 39 36 32
13 13 11 14 10 8 5 4 6 2 1 4 8 4 6 6 13 13 17 20 21 19 22 22 32 34 38 38 37 35 36 36 39 41 42 37 37 36 33 31 37 39 36 36
20 19 13 15 10 7 6 3 2 4 1 6 3 5 10 9 7 5 18 21 20 20 22 21 23 28 35 39 38 36 37 36 43 43 39 40 45 39 39 37 35 35 36 38
14 11 20 9 15 8 7 8 5 6 2 3 8 3 6 8 4 8 9 18 19 20 20 22 25 33 37 41 41 39 38 35 36 38 43 42 43 46 39 39 37 40 40 39
12 13 4 18 5 9 4 6 10 5 2 3 5 7 5 6 6 7 4 4 15 20 19 21 21 34 38 39 44 44 39 39 36 35 39 47 44 41 43 40 31 36 36 32
5 4 16 11 6 9 10 4 4 2 7 5 5 2 3 6 2 6 6 8 7 8 12 16 17 29 36 41 43 43 43 41 44 41 35 41 45 44 37 37 37 32 35 32
22 10 10 11 14 13 5 9 3 2 5 6 2 5 5 6 7 8 7 9 9 8 6 4 8 27 38 39 39 39 38 36 32 36 38 36 40 43 42 35 29 24 27 28
11 4 10 20 15 21 17 9 9 5 5 4 5 5 6 7 3 7 8 8 9 9 9 7 2 8 24 27 29 33 32 34 35 32 34 39 40 37 30 18 22 23 26 22
6 4 9 12 12 13 17 7 8 6 4 6 5 4 7 6 3 6 7 6 4 8 8 7 7 3 13 19 25 27 32 37 33 26 35 32 31 26 28 30 26 26 22 19
9 5 15 14 11 3 7 9 9 7 5 4 6 4 7 9 5 8 7 7 5 2 6 8 7 7 9 22 22 21 20 25 25 24 25 23 22 25 23 23 23 20 19 19
7 16 19 18 18 11 9 10 12 11 11 7 6 8 9 8 6 7 7 8 9 7 6 4 8 7 11 18 25 23 21 20 19 20 21 21 23 24 23 20 19 18 19 20
5 5 4 15 13 14 14 11 15 13 10 7 7 11 12 9 5 7 9 9 10 8 6 2 5 13 10 17 20 25 23 19 20 22 22 22 22 21 20 18 18 19 20 19
8 5 4 13 12 7 10 11 8 9 13 9 10 9 7 6 5 4 6 8 8 9 7 8 13 9 12 16 21 20 23 21 21 23 22 21 21 21 21 21 22 22 22 22
4 6 4 4 2 14 4 4 5 9 11 6 1 2 3 6 4 7 7 8 10 9 7 10 10 13 17 21 23 24 23 23 24 23 23 23 24 25 25 25 26 25 25 24
3 3 2 5 10 4 11 5 4 5 8 6 4 4 4 5 5 2 6 6 7 8 7 9 18 21 22 23 23 23 22 23 21 21 22 25 26 27 27 27 27 26 25 19
7 3 4 2 4 9 3 9 6 3 6 4 2 5 4 3 4 4 5 7 9 9 15 18 23 24 25 23 23 22 21 20 20 21 22 23 25 27 26 27 26 23 18 14
3 3 4 1 2 6 5 13 2 6 7 6 2 4 6 3 6 6 8 6 8 9 16 22 23 20 22 26 25 21 21 18 20 21 22 23 25 25 25 24 21 19 15 23
5 6 6 4 4 4 10 3 8 5 6 5 0 2 2 7 7 9 8 9 10 11 15 22 20 20 24 24 22 19 19 21 21 23 22 21 23 19 20 18 18 23 21 18
6 5 4 4 4 8 6 4 1 3 3 4 3 5 8 8 6 9 8 9 7 8 14 21 21 22 21 22 26 20 21 24 21 19 19 15 20 22 21 20 17 17 16 14
3 4 4 3 5 12 6 5 5 8 1 4 6 4 6 6 8 7 8 7 7 8 10 18 20 17 18 20 22 26 26 24 22 21 20 20 21 19 17 15 14 16 15 14
5 9 7 4 7 14 8 4 6 6 9 5 6 2 5 7 6 6 6 7 7 10 19 23 20 19 20 26 25 25 25 25 26 23 21 19 18 17 18 16 12 10 9 5
5 7 6 6 11 7 3 3 5 9 3 8 3 2 3 6 8 6 8 7 12 15 21 23 27 28 24 29 26 22 23 28 28 26 22 19 18 12 12 11 10 8 5 3
Wind_Direction
239 208 225 230 228 241 258 273 276 305 261 192 223 201 211 189 179 152 179 174 164 166 162 161 163 161 161 168 168 170 170 167 172 172 172 173 188 193 199 214 221 217 215 212
233 228 222 236 252 254 262 299 306 297 184 183 252 279 220 166 206 209 168 183 162 156 160 161 162 166 175 178 178 178 180 176 176 182 184 196 202 208 213 221 221 218 210 215
213 237 218 235 249 256 251 249 268 262 297 322 69 337 317 220 143 156 160 167 156 161 164 168 165 172 180 186 184 180 176 179 181 186 194 208 217 214 211 209 204 209 213 216
235 230 245 232 243 238 235 251 254 3 12 273 114 276 276 191 193 176 167 159 158 163 165 162 171 172 180 190 187 186 187 190 192 199 204 203 205 205 212 216 219 214 216 214
222 217 227 243 247 199 249 277 298 338 324 353 341 108 269 194 184 195 173 170 172 169 167 172 175 177 183 187 194 197 200 202 206 205 202 205 204 205 210 212 213 211 214 214
241 234 240 237 238 214 236 305 335 264 215 307 233 145 283 187 190 200 175 181 178 175 176 179 180 180 186 192 199 204 207 206 208 208 205 209 206 206 207 207 208 208 213 212
246 252 238 235 228 219 191 130 351 331 356 225 320 198 230 222 230 224 186 186 185 180 180 182 182 183 190 195 202 206 211 212 206 210 208 213 207 207 209 214 207 200 207 210
221 236 221 216 209 193 205 159 158 201 207 346 338 279 281 194 184 149 126 183 184 185 186 186 190 190 194 195 198 207 212 213 211 209 207 211 207 205 209 213 212 209 211 215
197 234 181 224 200 160 235 187 194 137 26 40 249 262 26 2 116 110 128 151 167 188 194 194 191 194 197 198 201 202 204 211 213 217 213 214 209 211 210 216 216 216 215 222
260 233 227 241 189 207 196 193 215 217 162 213 258 240 202 265 287 132 147 134 128 141 173 204 203 197 199 199 199 201 202 200 205 213 219 214 215 216 216 214 221 217 215 217
223 246 268 258 202 189 206 220 226 154 169 179 212 272 216 229 186 158 171 175 170 169 187 224 179 206 202 200 199 201 202 207 207 209 218 215 213 218 220 218 205 202 197 191
189 56 245 256 271 194 196 184 181 149 261 210 163 254 222 200 191 182 193 179 177 176 186 172 137 127 189 198 202 195 196 190 212 225 220 226 217 216 226 219 188 178 180 175
141 194 261 287 267 204 190 180 191 191 162 221 142 249 274 305 248 146 173 197 198 179 174 170 147 131 124 198 193 189 189 196 219 219 221 213 213 211 213 205 198 177 181 183
124 181 233 239 262 216 182 202 220 200 192 221 211 220 275 263 228 224 199 140 117 118 171 185 168 170 128 107 129 153 160 191 195 201 189 186 178 178 173 163 165 174 182 185
137 207 230 270 222 203 226 196 221 225 224 184 235 268 251 239 238 187 185 173 169 202 242 246 196 142 120 110 111 113 114 128 143 142 138 138 147 149 151 152 154 159 167 173
146 212 238 271 272 224 245 241 217 227 238 236 218 229 228 231 237 182 210 165 178 189 147 93 98 130 131 126 120 120 124 126 129 124 124 134 136 139 142 147 147 155 156 156
176 146 162 255 287 289 270 218 223 226 239 208 227 229 252 249 232 225 196 174 153 153 158 97 125 128 123 122 128 118 124 129 128 132 135 141 146 146 150 151 153 153 153 154
149 120 153 197 290 241 237 183 209 217 244 208 174 263 254 228 220 140 150 137 142 142 135 115 122 118 117 124 126 131 133 131 131 132 136 141 142 141 145 149 153 155 155 154
177 135 169 163 223 285 268 234 229 216 266 202 192 310 299 283 92 93 123 117 157 135 124 122 133 127 128 133 136 132 130 128 133 136 137 144 148 146 152 155 156 154 149 152
199 95 100 7 212 235 132 248 274 219 247 242 200 255 258 136 140 233 171 125 118 124 130 128 135 136 138 144 146 136 130 135 137 141 144 149 152 153 155 155 152 154 159 167
144 74 228 286 263 300 239 206 208 216 234 233 184 282 263 235 199 166 141 119 125 128 129 131 136 143 148 150 144 137 139 143 144 142 145 152 158 158 155 155 161 164 163 141
153 161 183 187 230 233 277 35 191 221 263 220 13 328 131 144 127 136 138 136 133 131 130 137 130 132 149 152 147 140 139 139 137 147 156 157 154 157 161 164 155 145 149 147
181 199 194 169 213 312 294 290 304 138 90 342 39 84 156 149 166 156 153 143 141 133 133 137 128 125 130 134 136 123 134 141 139 148 154 164 148 142 144 140 131 135 138 144
218 136 144 61 290 294 301 330 33 330 350 58 350 66 145 171 160 154 152 137 119 114 107 119 118 116 124 137 141 141 144 146 147 140 126 120 116 112 119 118 123 127 127 136
191 154 170 247 232 272 263 203 277 316 313 333 304 314 90 160 169 141 128 118 112 111 109 117 110 90 87 99 110 133 138 139 126 118 114 106 103 105 107 104 99 111 116 134
213 181 178 219 223 179 222 130 164 206 107 3 298 143 120 130 163 133 128 121 119 109 111 96 97 92 79 75 81 97 119 127 115 100 98 93 87 106 109 114 105 101 97 88
Height
758 773 775 771 762 754 755 752 755 740 728 740 744 742 742 744 752 763 765 772 772 773 777 781 785 788 790 792 795 798 799 801 805 809 814 817 821 824 827 829 833 837 840 841
764 762 754 750 749 749 747 750 753 739 730 737 737 742 732 736 744 746 756 764 766 769 773 778 782 785 789 789 791 794 796 799 803 807 811 815 818 820 823 826 829 832 836 838
758 746 742 746 745 747 742 749 751 748 731 728 738 750 736 729 729 733 738 745 753 759 766 772 775 779 785 787 788 790 793 797 801 806 809 813 816 816 820 823 825 827 831 833
746 736 740 742 743 735 751 732 734 738 749 768 740 779 744 733 734 731 732 740 744 750 755 763 770 775 778 781 785 787 791 794 797 800 805 806 808 811 813 816 819 821 826 829
736 734 735 740 733 725 740 728 732 736 751 754 752 765 751 725 733 732 730 734 736 740 745 753 759 765 770 776 780 783 787 790 793 795 796 800 803 806 809 812 814 817 820 823
726 716 721 723 718 719 720 731 736 737 752 780 750 758 755 734 721 719 722 723 728 733 738 744 751 759 764 770 774 777 780 782 784 787 789 792 796 799 803 805 808 810 814 817
728 724 712 710 725 719 725 743 780 789 788 788 738 750 740 716 711 707 709 716 720 724 731 738 743 749 756 761 764 768 770 771 774 778 781 783 785 790 794 797 800 803 806 809
742 743 713 702 714 728 732 743 781 789 790 771 742 749 733 702 700 699 699 707 713 719 723 728 732 738 743 747 753 758 762 766 770 774 776 778 781 783 784 787 789 792 796 800
732 727 696 698 701 711 728 742 732 760 756 777 763 733 711 706 704 702 701 701 710 713 716 719 724 729 733 737 740 745 753 758 763 766 769 770 773 776 778 780 781 784 791 795
710 726 700 698 700 702 714 715 748 749 781 785 754 744 746 721 710 705 707 710 705 706 712 714 717 719 722 724 729 737 742 745 748 756 760 763 766 770 772 776 776 777 782 785
704 716 713 698 704 712 720 725 725 731 749 773 776 761 718 715 710 706 708 705 703 703 703 703 708 711 712 716 723 729 736 741 746 747 753 756 757 761 768 770 771 775 780 781
695 710 727 714 693 684 696 714 722 753 747 746 763 759 701 702 697 701 702 699 700 700 701 700 700 705 710 716 722 725 729 737 743 745 749 751 750 755 763 767 760 770 780 783
695 718 743 725 701 683 696 701 705 715 729 742 771 753 699 697 697 694 697 696 698 697 698 698 698 701 709 712 716 721 725 729 731 740 741 747 746 749 758 762 762 769 772 778
692 719 727 730 713 695 702 697 700 713 743 738 738 726 712 703 699 696 693 695 695 695 694 697 698 699 702 710 716 721 725 729 733 736 738 741 745 748 754 759 761 765 768 773
693 716 717 704 689 686 692 697 700 706 708 722 719 717 709 700 694 692 688 691 691 693 693 697 696 698 703 708 713 719 724 727 729 731 734 740 744 747 752 758 760 764 770 775
687 706 705 708 692 683 694 689 690 693 694 698 704 707 690 685 683 684 686 688 691 691 694 694 694 699 705 708 712 717 723 728 732 734 738 742 746 750 753 759 763 768 772 777
688 702 707 714 697 691 709 696 685 687 684 691 706 696 683 685 682 680 682 684 687 691 690 691 697 703 707 711 714 719 722 726 731 734 741 745 749 752 756 759 765 769 774 779
693 697 711 724 717 717 685 667 672 681 679 676 679 678 677 678 673 676 677 682 686 687 688 694 699 704 709 713 716 720 726 729 734 739 743 747 751 755 759 762 767 771 774 778
686 694 712 713 713 696 681 673 676 680 688 669 672 672 671 670 674 678 675 677 682 685 690 694 699 705 710 715 719 723 727 730 736 740 743 747 750 754 758 762 767 771 775 781
686 694 709 717 712 709 684 672 662 662 700 664 663 670 673 674 699 691 678 677 683 686 690 695 700 705 710 716 720 724 727 733 738 742 745 749 752 755 760 764 769 773 777 781
707 707 714 726 720 703 666 659 661 696 706 660 659 665 670 676 679 672 677 681 681 686 692 696 702 706 711 716 720 724 729 735 739 743 747 751 754 757 761 766 769 773 777 780
697 706 711 717 715 712 665 661 677 676 665 658 658 661 668 670 673 675 678 681 683 687 692 696 701 707 713 718 723 729 733 738 742 746 750 755 758 761 764 767 770 772 775 778
693 695 695 693 696 678 668 662 657 657 664 663 659 662 667 672 673 675 679 682 685 689 694 699 704 710 715 719 725 733 738 741 746 752 755 758 760 763 766 769 772 775 778 780
680 686 695 696 684 681 676 665 663 664 657 658 662 662 665 670 673 675 678 681 687 694 700 705 711 716 719 724 728 734 740 744 749 754 758 761 764 767 770 773 776 779 781 784
674 679 683 682 674 678 669 662 664 663 666 660 663 661 663 668 673 675 680 685 690 697 703 709 715 722 728 729 733 739 743 747 752 757 761 765 768 771 774 777 781 784 786 788
660 667 679 681 661 664 663 660 657 662 667 666 662 661 659 663 671 675 681 686 692 700 707 714 721 727 735 735 739 743 747 749 755 761 767 771 773 776 778 781 783 785 787 788